User: anonymous   Login
Location: Unspecified
(0.0000°N, 0.0000°E)
Time: 17:47:39
(UTC+00:00)
Language:

PAYLOAD F - Orbit

View from above orbital plane
View from above orbital plane
View from above satellite
View from above satellite

Ground track
Ground track

The orbit data is extracted from the following two-line orbital elements,

1 27060U 01058F   18049.71143145 +.00000009 +00000-0 -95568-5 0  9995
2 27060 082.5448 348.5205 0009138 009.8142 350.3126 12.62995303744331
Epoch (UTC): 18 February 2018 17:04:27
Eccentricity: 0.0009138
inclination: 82.5448°
perigee height: 1403 km
apogee height: 1418 km
right ascension of ascending node: 348.5205°
argument of perigee: 9.8142°
revolutions per day: 12.62995303
mean anomaly at epoch: 350.3126°
orbit number at epoch: 74433

The dashed part of the orbit path shows where the satellite is in the earth's shadow,  

DLR